Lid_Strength_Index
-0 0 0 -0 0 0 0 -0 -2 -1 -1 -1 -2 -1 -1 -1 -0 -1 -0 -0 -1 -0
0 0 0 -0 -1 -0 -1 -1 -1 -1 -1 -1 -1 -1 -1 -0 -1 -1 -1 -1 -1 -0
0 -0 -0 -0 -0 -1 -1 -1 -1 -1 -1 -1 -1 -1 -1 -1 -1 -1 -0 -0 -1 -0
0 0 -0 -0 -0 -0 -1 -1 -1 -1 -1 -1 -1 -1 -1 -1 -1 -0 -0 -1 -0 -0
0 0 0 0 -0 -1 -0 -1 -1 -1 -1 -1 -1 -1 -0 -0 -1 -0 0 -0 -0 0
1 1 0 0 -0 -0 -0 -0 -1 -1 -0 -0 -1 -1 -1 -0 -0 -0 -0 -0 -0 0
1 1 0 0 0 -0 -0 -0 -0 -0 -0 -0 -1 -1 -1 -1 -0 -0 -0 -0 -0 -0
1 0 0 0 0 -0 -0 -0 -0 -0 -0 -0 -0 -0 -0 -0 -0 -0 -0 -0 -0 -1
1 1 1 1 0 0 0 -0 -0 0 0 -0 0 2 3 0 -0 -0 0 0 -0 -1
1 1 1 1 1 1 1 0 0 0 0 0 -0 4 4 2 -0 -0 0 0 0 0
1 1 1 1 1 1 1 1 1 1 0 0 0 5 6 4 -0 -0 -0 -0 -0 -0
1 1 1 1 1 1 1 1 1 0 0 1 0 6 6 4 0 0 0 0 -0 -0
1 1 1 1 1 1 1 1 1 1 0 2 0 6 8 4 0 1 1 0 -0 4
1 1 1 1 1 1 1 1 1 1 0 0 1 0 9 9 0 1 1 1 1 0